Location: Cahas Mountain Overlook
(37.0833°N, 80.1000°W)
Time: 04:35:01
(UTC-04:00)

A-11 Canister half - Pass Details

Date: 24 May 2026
Orbit: 1524 x 1684 km, 47.3° (Epoch: 8 June)

Event Time Altitude Azimuth Distance (km) Brightness Sun altitude
Rises 01:04:01 0° 287° (WNW) 4,866 11.9 -32.1°
Reaches altitude 10° 01:09:39 10° 262° (W) 3,905 11.0 -32.1°
Enters shadow 01:11:56 12° 248° (WSW) 3,725 10.8 -32.1°
